Tracking 20721 objects as of 2-Jun-2020
HD Live streaming from Space Station
objects crossing your sky now

SL-04 R/B


SL-04 R/B is no longer on orbit


NORAD ID: 42899
Int'l Code: 2017-043B
Perigee: N/A
Apogee: N/A
Inclination: N/A
Period: N/A
Semi major axis: N/A
RCS: N/A
Launch date: July 28, 2017
Source: Commonwealth of Independent States (former USSR) (CIS)
Launch site: TYURATAM MISSILE AND SPACE COMPLEX (TTMTR)
Decay date: 2017-08-01

Note: This is a ROCKET BODY
aabbcc
Your satellite tracking list
Your tracking list is empty




NASA's NSSDC Master Catalog

Two Line Element Set (TLE):
1 42899U 17043B   17212.95268254 +.07528775 +12440-4 +27103-3 0  9993
2 42899 051.6270 173.3052 0004665 166.2507 193.9209 16.44177349000531
Source of the keplerian elements: AFSPC